DMSP 5D-2 F11 DEB, 28303

Orbit data source: Space-Track

DMSP 5D-2 F11 DEB, 28303 is space debris in SSO originally from a launch on Thu, 28 Nov 1991 UTC launched from the Air Force Western Test Range (AFWTR). Debris objects in space refer to the collection of defunct objects orbiting the Earth. Examples of debris include non-operational satellites, rocket bodies, and fragments generated from explosions, collisions, or faulty payload assembly.

Loading next visibility...
Identifier
28303, 1991-082Q
Orbit
SSO
Country
Flag of USUS
Related business
Manufacturer
Unknown
Mission
Spacecraft
Bus & Motor
Unknown
Mass
Unknown
Launch date (UTC)
1991-11-28 (34 years ago)
Launch vehicle
Unknown
Launch site
Air Force Western Test Range (AFWTR)
Object type
Payload
Rocket body
Debris
Shape & HBR
Unknown shape, 0.2 m
Radar Cross Section
Small (<0.1 m²)

Expand to show TLE details & history
Last TLE update: 6 hours ago

TLE from 6 hours ago
0 DMSP 5D-2 F11 DEB
1 28303U 91082Q   26121.29787926  .00000137  00000-0  75408-4 0  9997
2 28303  98.7222 141.7466 0028594 200.9839 172.3296 14.26235905145700
Epoch: 2026-05-01T07:08Z
TLE epoch observation values (Epoch: 2026-05-01T07:08:56.768Z)
Latitude
13.16432°
Longitude
173.23241°
Altitude
826.872 km
Speed
7.43 km/s
True Right ascension
09h 18m 48s
True Declination
13° 05' 20"
Sunlit
Object was in daylight at epoch
Visualization orbit readout
Latitude
Unknown
Longitude
Unknown
Altitude
Unknown
Speed
Unknown
Apparent Right ascension
Unknown
Apparent Declination
Unknown
Sunlit
N/A
Visualization observer readout
Local Sidereal Time
20:53:54
Azimuth
Unknown
Elevation
Unknown
Doppler factor
Unknown
Orbital elements
Apogee altitude
822.021 km
Perigee altitude
780.962 km
Semi-major axis
7,179.628 km
Eccentricity
0.00286
Inclination
98.7222°
RAAN
141.7466°
Arg. of periapsis
200.9839°
True anomaly
172.37318°
Mean anomaly
172.3296°
Eccentric anomaly
172.35141°
Mean motion
3.56772 °/min
Orbital period
100.9 mins
BSTAR
0.000075408
Loading maneuver chart data...
Computing Atmospheric mass density...
Loading historical data...
Loading historical data...
Loading historical data...
Loading historical data...
Loading historical data...
Loading historical data...
Loading historical data...

Documentation

Showing up to 5 results
|